Regional Weather Roundup
Issued by NWS

Home | Current Version | Previous Version | Text Only | Print | Product List | Glossary On
Versions: 1 2 3 4 5 6 7 8 9 10 11 12 13 14 15 16 17 18 19 20 21 22 23 24 25 26 27 28 29 30 31 32 33 34 35 36 37 38 39 40 41 42 43 44 45 46 47 48 49 50
159
ASUS43 KOAX 160802
RWRNE

WEATHER ROUNDUP FOR NEBRASKA
NATIONAL WEATHER SERVICE OMAHA NE
200 AM CST MON JAN 16 2017

NOTES: SATELLITE DATA IS BEING USED TO AUGMENT CLOUD COVER ABOVE
       12000 FEET.
       "FAIR" INDICATES FEW OR NO CLOUDS BELOW 12,000 FEET WITH NO
       SIGNIFICANT WEATHER AND/OR OBSTRUCTIONS TO VISIBILITY.

  * THESE STATIONS DO NOT REPORT WEATHER SUCH AS RAIN...SNOW OR FOG.

NEZ001>004-019>022-054>056-160900-
NEBRASKA PANHANDLE

CITY           SKY/WX    TMP DP  RH WIND       PRES   REMARKS
SCOTTSBLUFF    CLOUDY    32  27  81 NW5       30.00R WCI  27
ALLIANCE       CLOUDY    31  26  82 CALM      29.98S
CHADRON        CLOUDY    24  20  84 W5        30.04R WCI  18
KIMBALL        LGT SNOW  31  30  96 N10       29.95F WCI  22
SIDNEY         MIX PCPN  31  28  89 N9        29.95F WCI  23
$$

NEZ057>060-069>072-079>082-160900-
SOUTHWEST NEBRASKA

CITY           SKY/WX    TMP DP  RH WIND       PRES   REMARKS
NORTH PLATTE   CLOUDY    31  30  96 CALM      30.00F FOG
IMPERIAL       CLOUDY    31  29  92 N7        29.97F FOG     WCI  24
LEXINGTON      CLOUDY    31  30  95 NE3       30.02S FOG
MCCOOK         CLOUDY    30  30 100 NE6       29.99F WCI  24
OGALLALA       CLOUDY    33  32  96 CALM      29.98F FOG
$$

NEZ005>010-023>029-035>040-094-160900-
NORTH CENTRAL NEBRASKA

CITY           SKY/WX    TMP DP  RH WIND       PRES   REMARKS
VALENTINE      CLOUDY    27  23  85 CALM      30.04R
AINSWORTH      MIX PCPN  31  27  87 CALM      30.03R
BROKEN BOW     CLOUDY    32  30  92 CALM      30.02F
O`NEILL        MIX PCPN  32  31  97 CALM      30.07S
ORD            CLOUDY    31  28  89 E3        30.05S FOG
THEDFORD       CLOUDY    32  32  99 CALM      30.01F FOG
$$

NEZ041-046>049-061>064-073>077-083>087-160900-
SOUTH CENTRAL NEBRASKA

CITY           SKY/WX    TMP DP  RH WIND       PRES   REMARKS
GRAND ISLAND   FRZ RAIN  30  30 100 E7        30.05F FOG     WCI  23
AURORA         MIX PCPN  31  30  97 NE5       30.05F WCI  26
HASTINGS       CLOUDY    31  29  92 NE6       30.04F FOG     WCI  25
HEBRON         MIX PCPN  32  31  98 NE6       30.03F WCI  26
HOLDREGE       CLOUDY    31  30  96 NE3       30.00F FOG
KEARNEY *      CLOUDY    30  28  93 NE6       30.03F WCI  24
YORK           LGT RAIN  32  32 100 CALM      30.07F
$$

NEZ011>018-030>034-042>045-160900-
NORTHEAST NEBRASKA

CITY           SKY/WX    TMP DP  RH WIND       PRES   REMARKS
NORFOLK        CLOUDY    29  28  96 E3        30.09S FOG
ALBION         MIX PCPN  31  29  96 SE3       30.08S
BLAIR          MIX PCPN  32  32  99 E5        30.10S WCI  27
FREMONT        CLOUDY    32  32 100 CALM      30.11S FOG
TEKAMAH        CLOUDY    32  31  96 NE3       30.12F FOG
WAYNE          MIX PCPN  30  30  98 CALM      30.12R
$$

NEZ050>053-065>068-078-088>093-160900-
SOUTHEAST NEBRASKA

CITY           SKY/WX    TMP DP  RH WIND       PRES   REMARKS
LINCOLN        CLOUDY    32  31  96 NE7       30.10F FOG     WCI  26
OMAHA EPPLEY   DRIZZLE   33  29  85 E3        30.13S FOG
BEATRICE       MIX PCPN  32  32 100 NE6       30.05F WCI  26
FALLS CITY     FRZ RAIN  32  31  96 E7        30.07F FOG     WCI  26
NEBRASKA CITY  CLOUDY    32  32 100 NE6       30.08F FOG     WCI  26
PLATTSMOUTH    CLOUDY    32  30  92 CALM      30.09F FOG
$$

NEZ044-045-051>053-067-160900-
OMAHA AREA

CITY           SKY/WX    TMP DP  RH WIND       PRES   REMARKS
OMAHA EPPLEY   DRIZZLE   33  29  85 E3        30.13S FOG
BLAIR          MIX PCPN  32  32  99 E5        30.10S WCI  27
FREMONT        CLOUDY    32  32 100 CALM      30.11S FOG
MILLARD        CLOUDY    34  32  94 CALM      30.12R
OFFUTT AFB     FRZ DRZL  32  32 100 N3        30.11F
PLATTSMOUTH    CLOUDY    32  30  92 CALM      30.09F FOG
WAHOO          CLOUDY    32  31  96 E5        30.11S FOG     WCI  27
$$




USA.gov is the U.S. government's official web portal to all federal, state and local government web resources and services.